Regional Weather Roundup
Issued by NWS Mobile, AL

Home | Current Version | Previous Version | Text Only | Print | Product List | Glossary On
Versions: 1 2 3 4 5 6 7 8 9 10 11 12 13 14 15 16 17 18 19 20 21 22 23 24 25 26 27
000
ASUS44 KMOB 271112
RWRMOB
REGIONAL WEATHER ROUNDUP
NATIONAL WEATHER SERVICE MOBILE AL
600 AM CDT TUE JUN 27 2017

NOTE: "FAIR" INDICATES FEW OR NO CLOUDS BELOW 12,000 FEET WITH NO
      SIGNIFICANT WEATHER AND/OR OBSTRUCTIONS TO VISIBILITY.

  * THESE STATIONS ARE PART OF THE UNIVERSITY OF SOUTH ALABAMA
    MESONET AND ARE NOT UNDER NWS OR FAA QUALITY CONTROL.

ALZ061>064-271200-
COASTAL ALABAMA

CITY           SKY/WX    TMP DP  RH WIND       PRES   REMARKS
MOBILE REG APT CLOUDY    72  61  68 NE3       30.04S
BROOKLEY FIELD CLOUDY    73  66  78 N5        30.04S
USA CAMPUS*      N/A     70  63  78 CALM      30.03S
DOG RIVER*       N/A    N/A N/A N/A MISG        N/A


CITY           SKY/WX    TMP DP  RH WIND       PRES   REMARKS
GULF SHORES    CLOUDY    71  68  92 NE6       30.02R

$$

ALZ051>060-271200-
INTERIOR SOUTHWEST AND SOUTH CENTRAL ALABAMA

CITY           SKY/WX    TMP DP  RH WIND       PRES   REMARKS
GREENVILLE     CLOUDY    68  61  78 N5        30.05R
EVERGREEN      CLOUDY    66  64  93 CALM      30.05R
ATMORE*        NOT AVBL
ANDALUSIA/OPP  MOCLDY    73  67  81 CALM      30.03R
ANDALUSIA*       N/A     70  66  88 N2        30.04R
FLORALA APT    CLOUDY    71  66  84 CALM      30.05R
FLORALA*         N/A     70  68  94 CALM      30.73R

$$

FLZ001>006-271200-
WESTERN FLORIDA PANHANDLE

CITY           SKY/WX    TMP DP  RH WIND       PRES   REMARKS
PENSACOLA      CLOUDY    76  67  73 N3        30.02R
NAS PENSACOLA  CLOUDY    73  66  78 N5        30.01R
MILTON         CLOUDY    70  67  90 N3        30.02S
WHTNG S FIELD  PTCLDY    75  68  78 N5        30.02S


CITY           SKY/WX    TMP DP  RH WIND       PRES   REMARKS
JAY*             N/A     70  66  88 N3        30.04R
DUKE FIELD     CLOUDY    70  68  92 CALM      30.02R
CRESTVIEW      MOCLDY    72  67  84 CALM      30.03R
VALPARAISO     MOCLDY    74  68  83 N6        30.01R
DESTIN         CLOUDY    79  78  97 NE5       30.01R

$$

MSZ076-079-271200-
INTERIOR SOUTHEAST MISSISSIPPI

CITY           SKY/WX    TMP DP  RH WIND       PRES   REMARKS
LEAKESVILLE*   NOT AVBL
AGRICOLA*      NOT AVBL

$$

MARINE OBSERVATIONS

STATION/POSITION TIME  TEMP    WIND        PRES    WAVE
                       AIR SEA DIR/SP/G            HT/PER
                 (UTC) (F)     (DEG/KT/KT) (MB)    (FT/S)
PASCAGOULA       1048   75     360/  5/  6 1016.4F
PETIT BOIS ISLND 1048   77      10/  6/  8 1017.2S
GRAND BAY        0930   74      20/  3     1017.0S
KATRINA CUT      1030   77      50/  6     1016.3S
CEDAR POINT      1030   74      20/  6     1016.3S
E DAUPHIN ISLAND 1000   80      30/  7/  8 1016.0R
MIDDLE BAY LIGHT 1030   77      10/ 10     1016.6R
USCG MOBILE BAY  1048   73 80  350/  4/  5 1017.4S
STATE DOCKS      1036   74 79              1016.8S
MEAHER PARK      1030   72     360/  5     1016.9R
FORT MORGAN      1048   79      20/  8/  9   N/A
12 S ORANGE BCH  1050   79 82   50/  6/  8 1015.8R   1/ 6
PENSACOLA BAY    1036   76 81              1016.5R
64 S DAUPHIN ISL 1050   81 85  300/  2/  6 1016.5R   2/ 5
67 S FORT MORGAN 1030   80     240/  4     1016.3R

$$

SELECTED LOCATIONS ACROSS THE REGION

CITY           SKY/WX    TMP DP  RH WIND       PRES   REMARKS
NEW ORLEANS    CLOUDY    77  75  93 CALM      30.01F
GULFPORT       MOCLDY    73  64  73 CALM      30.02S
PASCAGOULA AP  CLOUDY    70  66  87 CALM      30.02S
PASCAGOULA*    NOT AVBL
HATTIESBURG    CLOUDY    68  65  90 CALM      30.05S
LAUREL         MOCLDY    64  61  88 CALM      30.07F
MERIDIAN       PTCLDY    66  65  96 CALM      30.06R
JACKSON        PTCLDY    66  63  90 N3        30.06R
MONTGOMERY     MOCLDY    70  61  73 CALM      30.06R
TROY           PTCLDY    67  66  97 CALM      30.05S
ASHFORD*         N/A     70  66  88 N2        30.04R
DOTHAN         PTCLDY    71  69  93 N6        30.07R
PANAMA CITY    PTCLDY    73  70  90 CALM      30.00S

$$





USA.gov is the U.S. government's official web portal to all federal, state and local government web resources and services.